Regional Weather Roundup
Issued by NWS

Home | Current Version | Previous Version | Graphics & Text | Print | Product List | Glossary On
Versions: 1 2 3 4 5 6 7 8 9 10 11 12 13 14 15 16 17 18 19 20 21 22 23 24 25 26 27 28 29 30 31 32 33 34 35 36 37 38 39 40 41 42 43 44 45 46 47 48 49 50
269
ASUS43 KLOT 251512
RWRIL

ILLINOIS REGIONAL WEATHER ROUNDUP
NATIONAL WEATHER SERVICE CHICAGO/ROMEOVILLE IL
900 AM CST SAT FEB 25 2017

NOTE: "FAIR" INDICATES FEW OR NO CLOUDS BELOW 12,000 FEET WITH NO
SIGNIFICANT WEATHER AND/OR OBSTRUCTIONS TO VISIBILITY.

* THESE STATIONS ARE NOT UNDER NWS QUALITY CONTROL. THEY ALSO MAY NOT
  REPORT WEATHER SUCH AS PRECIPITATION OR FOG.

ILZ001-002-007-009-015-016-024-251600-
NORTHWEST ILLINOIS

CITY           SKY/WX    TMP DP  RH WIND       PRES   REMARKS
MOLINE         MOSUNNY   22  11  62 NW26G35   29.95R WCI   5
STERLING*      FLURRIES  23  14  68 W20       29.89R WCI   8
$$

ILZ003-004-008-010-011-017-018-251600-
NORTH CENTRAL ILLINOIS

CITY           SKY/WX    TMP DP  RH WIND       PRES   REMARKS
ROCKFORD       LGT SNOW  23  14  68 W18G28    29.85R WCI   9
FREEPORT*      PTSUNNY   19  12  72 W17G26    29.87R WCI   4
ROCHELLE*      LGT SNOW  22  15  76 W21       29.85R WCI   6
DE KALB*       CLOUDY    22  16  78 NW21G31   29.82R WCI   6
PERU*          PTSUNNY   22  13  69 W18G29    29.89R WCI   7
$$

ILZ005-006-012>014-019>023-251600-
NORTHEAST ILLINOIS

CITY           SKY/WX    TMP DP  RH WIND       PRES   REMARKS
CHICAGO-OHARE  FLURRIES  23  14  68 NW16      29.80R WCI  10
CHICAGO-MIDWAY FLURRIES  23  12  62 W18G24    29.81R WCI   9
AURORA         CLOUDY    23  15  71 NW23G30   29.83R WCI   7
LANSING*       FLURRIES  23  16  74 NW16      29.81R WCI  10
JOLIET*        FLURRIES  24  15  68 W13G24    29.85R WCI  13
WAUKEGAN       LGT SNOW  22  14  71 NW16G23   29.76R WCI   8
DUPAGE AIRPORT LGT SNOW  22  13  68 NW15      29.81R WCI   9
KANKAKEE*      FLURRIES  24  15  69 W17G26    29.86R WCI  10
WHEELING       CLOUDY    22  13  68 NW18G28   29.80R WCI   7
MORRIS*        FLURRIES  24  16  73 NW18G25   29.85R WCI  10
ROMEOVILLE*    FLURRIES  22  18  84 NW16G23   29.83R WCI   9
NORTHERLY ISL    N/A     23  15  71 W17         N/A  WCI   9
$$

LMZ740>746-251600-
SOUTHERN LAKE MICHIGAN

STATION/POSITION SKY/WX   TEMP    WIND        PRES    VSBY  WAVE
                          AIR SEA DIR/SP/G                  HT/PER
                          (F)     (DEG/KT/KT) (MB)    (MI)  (FT/S)
HARRISON CRIB              23     290/ 22/ 25   N/A
BURNHAM HARBOR             23     270/ 11/ 18   N/A
CALUMET HARBOR             22     280/ 13/ 19 1008.7R
BURNS HARBOR               26     290/ 23/ 25 1008.8R
MICHIGAN CITY              25     260/ 27/ 31   N/A
$$

ILZ025>027-034>036-040-047-049-050-058-095>099-251600-
WEST-CENTRAL ILLINOIS

CITY           SKY/WX    TMP DP  RH WIND       PRES   REMARKS
QUINCY         CLOUDY    23  15  71 W23       30.03R WCI   7
GALESBURG*     MOSUNNY   22  15  75 W20G28    29.96R WCI   7
MACOMB*        MOSUNNY   23  17  77 W17       30.02R WCI   9
JACKSONVILLE*  CLOUDY    25  14  63 W20G26    30.01R WCI  11
PITTSFIELD*    PTSUNNY   26  17  68 NW12      30.04R WCI  15
$$

ILZ028>032-037-038-041>044-048-051>054-059>061-251600-
CENTRAL ILLINOIS

CITY           SKY/WX    TMP DP  RH WIND       PRES   REMARKS
PONTIAC        FLURRIES  25  17  72 W20       29.90R WCI  11
BLOOMINGTON    FLURRIES  24  18  77 NW22      29.91R WCI   9
DECATUR        FLURRIES  25  15  66 W22G29    29.94R WCI  10
PEORIA         CLOUDY    23  14  68 W16G24    29.95R WCI  10
LACON*         CLOUDY    24  15  68 W17G23    29.92R WCI  10
LINCOLN*       PTSUNNY   26  17  68 W9G20     29.95R WCI  17
SPRINGFIELD    PTSUNNY   27  14  58 W22G30    29.98R WCI  13
TAYLORVILLE    CLOUDY    26  15  62 W18G26    29.99R WCI  12
$$

ILZ033-039-045-046-055>057-062-063-251600-
EAST-CENTRAL ILLINOIS

CITY           SKY/WX    TMP DP  RH WIND       PRES   REMARKS
CHAMPAIGN      PTSUNNY   27  17  66 W30       29.91R WCI  11
RANTOUL*       PTSUNNY   27  19  72 NW25G35   29.90R WCI  12
MATTOON        FLURRIES  27  19  72 W17       29.94R WCI  14
PARIS*         CLOUDY    27  16  65 NW23G37   29.93R WCI  12
$$

ILZ079-100>102-251600-
SOUTHWEST ILLINOIS

CITY           SKY/WX    TMP DP  RH WIND       PRES   REMARKS
ALTON          MOSUNNY   28  14  54 NW17G23   30.04R WCI  16
BELLEVILLE     MOSUNNY   31  15  51 NW17G25   30.04R WCI  20
CAHOKIA*       MOSUNNY   30  13  49 W16       30.06R WCI  19
SPARTA*        CLOUDY    30  15  54 W13G26    30.06R WCI  20
$$

ILZ064>066-069>071-074>076-080>082-084>086-088>090-092>094-251600-
SOUTH-CENTRAL ILLINOIS

CITY           SKY/WX    TMP DP  RH WIND       PRES   REMARKS
CARBONDALE     CLOUDY    32  18  56 W14G21    30.06R WCI  22
CAIRO*         SUNNY     33  20  57 NW16      30.08R WCI  23
EFFINGHAM*     CLOUDY    30  19  64 W21       30.00R WCI  17
MARION         CLOUDY    32  19  59 W9G21     30.06R WCI  24
MT. VERNON     CLOUDY    31  20  63 W12G17    30.02R WCI  22
CENTRALIA*     CLOUDY    31  19  60 NW18G28   30.02R WCI  19
SALEM*         PTSUNNY   32  18  56 W21       30.01R WCI  20
METROPOLIS*    CLOUDY    34  18  52 W15       30.07R WCI  24
$$

ILZ067-068-072-073-078-083-087-091-251600-
SOUTHEAST ILLINOIS

CITY           SKY/WX    TMP DP  RH WIND       PRES   REMARKS
LAWRENCEVILLE  FLURRIES  30  19  63 NW21G29   29.98R WCI  17
FLORA*         CLOUDY    32  20  60 W15G26    30.00R WCI  22
FAIRFIELD*     CLOUDY    32  20  61 W7        30.00S WCI  26
HARRISBURG*    CLOUDY    32  21  63 W16       30.05R WCI  21
ROBINSON*      CLOUDY    28  20  71 NW20G29   29.98R WCI  15
CARMI*         CLOUDY    31  23  70 W14G20    30.02R WCI  21
$$

ABBREVIATIONS USED IN REMARKS
   TC - TEMPERATURE IN CELSIUS
  WCI - WIND CHILL INDEX
   HX - HEAT INDEX
  VSB - VISIBILITY
$$





USA.gov is the U.S. government's official web portal to all federal, state and local government web resources and services.